Time,TemperatureF,DewpointF,PressureIn,WindDirection,WindDirectionDegrees,WindSpeedMPH,WindSpeedGustMPH,Humidity,HourlyPrecipIn,Conditions,Clouds,dailyrainin,SoftwareType,DateUTC
2013-02-21 00:10:00,25.0,-15.0,30.16,West,277,8.0,21.0,16,0.00,,,0.00,weatherlink.com 1.10,2013-02-21 05:10:00,
2013-02-21 00:25:00,25.3,-16.0,30.16,NW,318,4.0,17.0,15,0.00,,,0.00,weatherlink.com 1.10,2013-02-21 05:25:00,
2013-02-21 00:40:00,25.6,-19.0,30.16,NW,308,12.0,18.0,13,0.00,,,0.00,weatherlink.com 1.10,2013-02-21 05:40:00,
2013-02-21 00:56:00,25.6,-19.0,30.16,NNW,333,2.0,18.0,13,0.00,,,0.00,weatherlink.com 1.10,2013-02-21 05:56:00,
2013-02-21 01:11:00,26.1,-20.0,30.18,West,259,11.0,15.0,12,0.00,,,0.00,weatherlink.com 1.10,2013-02-21 06:11:00,
2013-02-21 01:26:00,26.4,-20.0,30.18,NW,311,6.0,13.0,12,0.00,,,0.00,weatherlink.com 1.10,2013-02-21 06:26:00,
2013-02-21 01:41:00,27.2,-25.0,30.18,NE,44,4.0,11.0,9,0.00,,,0.00,weatherlink.com 1.10,2013-02-21 06:41:00,
2013-02-21 01:56:00,27.1,-23.0,30.19,West,263,4.0,13.0,10,0.00,,,0.00,weatherlink.com 1.10,2013-02-21 06:56:00,
2013-02-21 02:11:00,26.0,-16.0,30.19,West,265,7.0,12.0,15,0.00,,,0.00,weatherlink.com 1.10,2013-02-21 07:11:00,
2013-02-21 02:26:00,26.4,-20.0,30.18,NNW,341,6.0,15.0,12,0.00,,,0.00,weatherlink.com 1.10,2013-02-21 07:26:00,
2013-02-21 02:41:00,27.1,-21.0,30.18,NW,305,9.0,12.0,11,0.00,,,0.00,weatherlink.com 1.10,2013-02-21 07:41:00,
2013-02-21 02:56:00,27.0,-18.0,30.18,West,275,8.0,14.0,13,0.00,,,0.00,weatherlink.com 1.10,2013-02-21 07:56:00,
2013-02-21 03:11:00,27.3,-14.0,30.18,WNW,298,5.0,12.0,16,0.00,,,0.00,weatherlink.com 1.10,2013-02-21 08:11:00,
2013-02-21 03:26:00,27.1,-18.0,30.18,West,281,7.0,13.0,13,0.00,,,0.00,weatherlink.com 1.10,2013-02-21 08:26:00,
2013-02-21 03:41:00,27.5,-17.0,30.17,NW,325,5.0,13.0,13,0.00,,,0.00,weatherlink.com 1.10,2013-02-21 08:41:00,
2013-02-21 03:56:00,28.1,-22.0,30.17,NW,320,3.0,14.0,10,0.00,,,0.00,weatherlink.com 1.10,2013-02-21 08:56:00,
2013-02-21 04:11:00,27.7,-17.0,30.17,West,259,9.0,15.0,13,0.00,,,0.00,weatherlink.com 1.10,2013-02-21 09:11:00,
2013-02-21 04:27:00,27.9,-20.0,30.17,WSW,253,5.0,15.0,11,0.00,,,0.00,weatherlink.com 1.10,2013-02-21 09:27:00,
2013-02-21 04:42:00,27.9,-16.0,30.17,NNW,344,10.0,14.0,14,0.00,,,0.00,weatherlink.com 1.10,2013-02-21 09:42:00,
2013-02-21 04:57:00,26.7,-13.0,30.18,NW,312,6.0,14.0,17,0.00,,,0.00,weatherlink.com 1.10,2013-02-21 09:57:00,
2013-02-21 05:12:00,27.0,-14.0,30.18,NW,310,7.0,13.0,16,0.00,,,0.00,weatherlink.com 1.10,2013-02-21 10:12:00,
2013-02-21 05:27:00,27.2,-15.0,30.18,West,268,11.0,16.0,15,0.00,,,0.00,weatherlink.com 1.10,2013-02-21 10:27:00,
2013-02-21 05:42:00,27.6,-16.0,30.18,NW,318,7.0,17.0,14,0.00,,,0.00,weatherlink.com 1.10,2013-02-21 10:42:00,
2013-02-21 05:57:00,28.1,-19.0,30.19,WNW,288,8.0,16.0,12,0.00,,,0.00,weatherlink.com 1.10,2013-02-21 10:57:00,
2013-02-21 06:12:00,28.4,-17.0,30.20,NNW,346,7.0,16.0,13,0.00,,,0.00,weatherlink.com 1.10,2013-02-21 11:12:00,
2013-02-21 06:27:00,28.3,-20.0,30.19,WNW,298,9.0,17.0,11,0.00,,,0.00,weatherlink.com 1.10,2013-02-21 11:27:00,
2013-02-21 06:57:00,30.1,-30.0,30.19,NNW,342,4.0,17.0,6,0.00,,,0.00,weatherlink.com 1.10,2013-02-21 11:57:00,
2013-02-21 07:12:00,30.2,-30.0,30.20,NW,317,7.0,15.0,6,0.00,,,0.00,weatherlink.com 1.10,2013-02-21 12:12:00,
2013-02-21 07:27:00,30.5,-33.0,30.20,West,269,6.0,14.0,5,0.00,,,0.00,weatherlink.com 1.10,2013-02-21 12:27:00,
2013-02-21 07:42:00,30.5,-33.0,30.21,NW,305,8.0,10.0,5,0.00,,,0.00,weatherlink.com 1.10,2013-02-21 12:42:00,
2013-02-21 07:58:00,30.7,-33.0,30.21,SSW,192,6.0,10.0,5,0.00,,,0.00,weatherlink.com 1.10,2013-02-21 12:58:00,
2013-02-21 08:13:00,30.5,-33.0,30.21,NW,318,6.0,9.0,5,0.00,,,0.00,weatherlink.com 1.10,2013-02-21 13:13:00,
2013-02-21 08:28:00,31.4,-36.0,30.22,NW,320,3.0,9.0,4,0.00,,,0.00,weatherlink.com 1.10,2013-02-21 13:28:00,
2013-02-21 08:43:00,32.4,-41.0,30.21,NW,307,10.0,10.0,3,0.00,,,0.00,weatherlink.com 1.10,2013-02-21 13:43:00,
2013-02-21 08:58:00,33.1,-40.0,30.21,NW,316,4.0,10.0,3,0.00,,,0.00,weatherlink.com 1.10,2013-02-21 13:58:00,
2013-02-21 09:13:00,34.0,-35.0,30.22,SE,136,2.0,12.0,4,0.00,,,0.00,weatherlink.com 1.10,2013-02-21 14:13:00,
2013-02-21 09:29:00,34.7,-39.0,30.22,ESE,105,2.0,7.0,3,0.00,,,0.00,weatherlink.com 1.10,2013-02-21 14:29:00,
2013-02-21 09:43:00,34.3,-30.0,30.23,NNW,337,3.0,9.0,5,0.00,,,0.00,weatherlink.com 1.10,2013-02-21 14:43:00,
2013-02-21 09:58:00,34.3,-27.0,30.23,WNW,283,5.0,8.0,6,0.00,,,0.00,weatherlink.com 1.10,2013-02-21 14:58:00,
2013-02-21 10:13:00,34.8,-27.0,30.23,WNW,287,3.0,8.0,6,0.00,,,0.00,weatherlink.com 1.10,2013-02-21 15:13:00,
2013-02-21 10:28:00,35.9,-29.0,30.23,West,262,7.0,10.0,5,0.00,,,0.00,weatherlink.com 1.10,2013-02-21 15:28:00,
2013-02-21 10:43:00,36.9,-20.0,30.23,WNW,288,3.0,5.0,8,0.00,,,0.00,weatherlink.com 1.10,2013-02-21 15:43:00,
2013-02-21 10:58:00,37.5,-19.0,30.22,WNW,284,3.0,9.0,8,0.00,,,0.00,weatherlink.com 1.10,2013-02-21 15:58:00,
2013-02-21 11:14:00,38.6,-21.0,30.22,WNW,293,6.0,8.0,7,0.00,,,0.00,weatherlink.com 1.10,2013-02-21 16:14:00,
2013-02-21 11:29:00,39.3,-20.0,30.22,West,265,1.0,14.0,7,0.00,,,0.00,weatherlink.com 1.10,2013-02-21 16:29:00,
2013-02-21 11:44:00,39.5,-18.0,30.21,WNW,302,4.0,7.0,8,0.00,,,0.00,weatherlink.com 1.10,2013-02-21 16:44:00,
2013-02-21 11:59:00,39.9,-17.0,30.21,East,89,5.0,7.0,8,0.00,,,0.00,weatherlink.com 1.10,2013-02-21 16:59:00,
2013-02-21 12:14:00,41.5,-29.0,30.20,West,273,0.0,7.0,4,0.00,,,0.00,weatherlink.com 1.10,2013-02-21 17:14:00,
2013-02-21 12:29:00,42.8,-18.0,30.19,NE,40,0.0,6.0,7,0.00,,,0.00,weatherlink.com 1.10,2013-02-21 17:29:00,
2013-02-21 12:44:00,43.5,-10.0,30.18,WSW,244,1.0,5.0,10,0.00,,,0.00,weatherlink.com 1.10,2013-02-21 17:44:00,
2013-02-21 12:59:00,43.9,-12.0,30.17,WSW,239,3.0,6.0,9,0.00,,,0.00,weatherlink.com 1.10,2013-02-21 17:59:00,
2013-02-21 13:14:00,44.5,-5.0,30.17,NW,305,1.0,6.0,12,0.00,,,0.00,weatherlink.com 1.10,2013-02-21 18:14:00,
2013-02-21 13:30:00,45.2,-7.0,30.16,NW,326,4.0,7.0,11,0.00,,,0.00,weatherlink.com 1.10,2013-02-21 18:30:00,
2013-02-21 13:44:00,45.8,-1.0,30.15,SW,217,3.0,5.0,14,0.00,,,0.00,weatherlink.com 1.10,2013-02-21 18:44:00,
2013-02-21 13:59:00,45.8,-3.0,30.15,WNW,298,3.0,5.0,13,0.00,,,0.00,weatherlink.com 1.10,2013-02-21 18:59:00,
2013-02-21 14:14:00,45.8,2.0,30.15,WSW,247,2.0,6.0,16,0.00,,,0.00,weatherlink.com 1.10,2013-02-21 19:14:00,
2013-02-21 14:29:00,46.2,6.0,30.14,SE,125,3.0,9.0,19,0.00,,,0.00,weatherlink.com 1.10,2013-02-21 19:29:00,
2013-02-21 14:45:00,46.0,3.0,30.15,SSW,211,0.0,8.0,17,0.00,,,0.00,weatherlink.com 1.10,2013-02-21 19:45:00,
2013-02-21 15:00:00,46.0,3.0,30.15,WSW,254,6.0,7.0,17,0.00,,,0.00,weatherlink.com 1.10,2013-02-21 20:00:00,
2013-02-21 15:15:00,45.9,8.0,30.15,SW,229,1.0,6.0,21,0.00,,,0.00,weatherlink.com 1.10,2013-02-21 20:15:00,
2013-02-21 15:30:00,46.5,6.0,30.14,ENE,74,0.0,3.0,19,0.00,,,0.00,weatherlink.com 1.10,2013-02-21 20:30:00,
2013-02-21 15:45:00,46.5,5.0,30.15,North,355,1.0,3.0,18,0.00,,,0.00,weatherlink.com 1.10,2013-02-21 20:45:00,
2013-02-21 16:00:00,46.3,12.0,30.15,ENE,65,0.0,3.0,25,0.00,,,0.00,weatherlink.com 1.10,2013-02-21 21:00:00,
2013-02-21 16:15:00,44.6,9.0,30.15,NE,41,1.0,4.0,23,0.00,,,0.00,weatherlink.com 1.10,2013-02-21 21:15:00,
2013-02-21 16:30:00,43.1,11.0,30.14,ENE,61,2.0,4.0,27,0.00,,,0.00,weatherlink.com 1.10,2013-02-21 21:30:00,
2013-02-21 16:45:00,42.3,10.0,30.14,ENE,78,1.0,3.0,27,0.00,,,0.00,weatherlink.com 1.10,2013-02-21 21:45:00,
2013-02-21 17:00:00,42.0,11.0,30.12,East,94,0.0,2.0,28,0.00,,,0.00,weatherlink.com 1.10,2013-02-21 22:00:00,
2013-02-21 17:30:00,40.1,10.0,30.12,East,82,1.0,2.0,29,0.00,,,0.00,weatherlink.com 1.10,2013-02-21 22:30:00,
2013-02-21 17:45:00,39.1,11.0,30.14,NE,50,2.0,4.0,31,0.00,,,0.00,weatherlink.com 1.10,2013-02-21 22:45:00,
2013-02-21 18:01:00,38.2,11.0,30.14,ENE,71,1.0,4.0,32,0.00,,,0.00,weatherlink.com 1.10,2013-02-21 23:01:00,
2013-02-21 18:16:00,37.6,10.0,30.15,ENE,78,3.0,6.0,32,0.00,,,0.00,weatherlink.com 1.10,2013-02-21 23:16:00,
2013-02-21 18:31:00,37.1,10.0,30.15,ENE,61,2.0,4.0,32,0.00,,,0.00,weatherlink.com 1.10,2013-02-21 23:31:00,
2013-02-21 18:46:00,36.5,10.0,30.14,ENE,75,3.0,5.0,33,0.00,,,0.00,weatherlink.com 1.10,2013-02-21 23:46:00,
2013-02-21 19:01:00,36.2,11.0,30.13,ENE,74,3.0,4.0,35,0.00,,,0.00,weatherlink.com 1.10,2013-02-22 00:01:00,
2013-02-21 19:16:00,36.1,11.0,30.13,East,96,5.0,6.0,35,0.00,,,0.00,weatherlink.com 1.10,2013-02-22 00:16:00,
2013-02-21 19:31:00,35.7,13.0,30.13,East,84,2.0,6.0,40,0.00,,,0.00,weatherlink.com 1.10,2013-02-22 00:31:00,
2013-02-21 19:46:00,34.9,13.0,30.12,East,90,2.0,7.0,41,0.00,,,0.00,weatherlink.com 1.10,2013-02-22 00:46:00,
2013-02-21 20:01:00,34.5,13.0,30.13,ENE,75,5.0,8.0,42,0.00,,,0.00,weatherlink.com 1.10,2013-02-22 01:01:00,
2013-02-21 20:16:00,34.3,14.0,30.12,East,84,5.0,8.0,43,0.00,,,0.00,weatherlink.com 1.10,2013-02-22 01:16:00,
2013-02-21 20:31:00,34.2,13.0,30.12,East,89,5.0,8.0,42,0.00,,,0.00,weatherlink.com 1.10,2013-02-22 01:31:00,
2013-02-21 20:46:00,33.9,14.0,30.13,ENE,77,5.0,11.0,44,0.00,,,0.00,weatherlink.com 1.10,2013-02-22 01:46:00,
2013-02-21 21:01:00,33.7,15.0,30.12,ENE,76,4.0,8.0,47,0.00,,,0.00,weatherlink.com 1.10,2013-02-22 02:01:00,
2013-02-21 21:16:00,33.5,14.0,30.13,ENE,71,5.0,10.0,45,0.00,,,0.00,weatherlink.com 1.10,2013-02-22 02:16:00,
2013-02-21 21:32:00,33.3,15.0,30.12,ENE,69,5.0,8.0,47,0.00,,,0.00,weatherlink.com 1.10,2013-02-22 02:32:00,
2013-02-21 21:47:00,32.6,17.0,30.13,NE,53,4.0,13.0,53,0.00,,,0.00,weatherlink.com 1.10,2013-02-22 02:47:00,
2013-02-21 22:02:00,30.9,20.0,30.16,ENE,69,8.0,10.0,65,0.00,,,0.00,weatherlink.com 1.10,2013-02-22 03:02:00,
2013-02-21 22:17:00,29.9,20.0,30.15,ENE,74,7.0,10.0,68,0.00,,,0.00,weatherlink.com 1.10,2013-02-22 03:17:00,
2013-02-21 22:32:00,28.3,23.0,30.14,East,79,7.0,11.0,81,0.00,,,0.00,weatherlink.com 1.10,2013-02-22 03:32:00,
2013-02-21 22:47:00,27.9,25.0,30.15,ENE,67,4.0,9.0,89,0.00,,,0.00,weatherlink.com 1.10,2013-02-22 03:47:00,
2013-02-21 23:02:00,28.2,26.0,30.14,ENE,78,3.0,12.0,91,0.00,,,0.00,weatherlink.com 1.10,2013-02-22 04:02:00,
2013-02-21 23:17:00,28.7,27.0,30.14,NE,53,6.0,10.0,92,0.00,,,0.00,weatherlink.com 1.10,2013-02-22 04:17:00,
2013-02-21 23:32:00,29.4,27.0,30.13,ENE,60,4.0,11.0,91,0.00,,,0.00,weatherlink.com 1.10,2013-02-22 04:32:00,
2013-02-21 23:47:00,29.0,27.0,30.13,ENE,68,4.0,10.0,91,0.00,,,0.00,weatherlink.com 1.10,2013-02-22 04:47:00,